Regional Weather Roundup
Issued by NWS

Home | Current Version | Previous Version | Text Only | Print | Product List | Glossary Off
Versions: 1 2 3 4 5 6 7 8 9 10 11 12 13 14 15 16 17 18 19 20 21 22 23 24 25 26 27 28 29 30 31 32 33 34 35 36 37 38 39 40 41 42 43 44 45 46 47 48 49 50

000
ASUS43 KOAX 251202
RWRNE

WEATHER ROUNDUP FOR NEBRASKA
NATIONAL WEATHER SERVICE OMAHA NE
700 AM CDT TUE APR 25 2017

NOTES: SATELLITE DATA IS BEING USED TO AUGMENT CLOUD COVER ABOVE
       12000 FEET.
       "FAIR" INDICATES FEW OR NO CLOUDS BELOW 12,000 FEET WITH NO
       SIGNIFICANT WEATHER AND/OR OBSTRUCTIONS TO VISIBILITY.

  * THESE STATIONS DO NOT REPORT WEATHER SUCH AS RAIN...SNOW OR FOG.

NEZ001>004-019>022-054>056-251300-
NEBRASKA PANHANDLE

CITY           SKY/WX    TMP DP  RH WIND       PRES   REMARKS
SCOTTSBLUFF    CLOUDY    46  41  82 SE6       29.54S
6HR MIN TEMP:  45; 6HR MAX TEMP:  48; 6HR PCP:  0.40;

ALLIANCE       CLOUDY    43  42  97 SE14      29.54S
6HR MIN TEMP:  43; 6HR MAX TEMP:  47; 6HR PCP:  0.23;

CHADRON        LGT RAIN  39  36  89 NE14      29.58R WCI  31
6HR MIN TEMP:  39; 6HR MAX TEMP:  48; 6HR PCP:  0.35;

KIMBALL        CLOUDY    42  42 100 CALM      29.57S
SIDNEY         CLOUDY    43  42  97 CALM      29.57R
6HR MIN TEMP:  42; 6HR MAX TEMP:  48; 6HR PCP:  0.11;

$$

NEZ057>060-069>072-079>082-251300-
SOUTHWEST NEBRASKA

CITY           SKY/WX    TMP DP  RH WIND       PRES   REMARKS
NORTH PLATTE   LGT RAIN  43  42  97 N14       29.58S FOG
6HR MIN TEMP:  43; 6HR MAX TEMP:  51; 6HR PCP:  0.48;

IMPERIAL       CLOUDY    47  44  90 NW8       29.58R
6HR MIN TEMP:  45; 6HR MAX TEMP:  51; 6HR PCP:  0.14;

LEXINGTON      CLOUDY    46  41  85 NW17G24   29.53R
MCCOOK         CLOUDY    47  45  93 NW15      29.55R
6HR MIN TEMP:  47; 6HR MAX TEMP:  56; 6HR PCP:  0.09;

OGALLALA       RAIN      45  43  93 NE12      29.58R
$$

NEZ005>010-023>029-035>040-094-251300-
NORTH CENTRAL NEBRASKA

CITY           SKY/WX    TMP DP  RH WIND       PRES   REMARKS
VALENTINE      CLOUDY    35  32  88 NE14      29.62F FOG     WCI  26
6HR MIN TEMP:  35; 6HR MAX TEMP:  43;

AINSWORTH      FOG       35  35 100 N18       29.60F VSB 1/2 WCI  24
BROKEN BOW     LGT RAIN  44  42  93 N16       29.56R
6HR MIN TEMP:  43; 6HR MAX TEMP:  49; 6HR PCP:  0.06;

O`NEILL        CLOUDY    39  36  91 N10       29.61R WCI  32
ORD            LGT RAIN  43  39  86 NE13      29.51F FOG
6HR MIN TEMP:  43; 6HR MAX TEMP:  48; 6HR PCP:  0.07;

THEDFORD       RAIN      38  37  96 N10       29.61R WCI  31
$$

NEZ041-046>049-061>064-073>077-083>087-251300-
SOUTH CENTRAL NEBRASKA

CITY           SKY/WX    TMP DP  RH WIND       PRES   REMARKS
GRAND ISLAND   CLOUDY    44  42  93 N10       29.54R
6HR MIN TEMP:  44; 6HR MAX TEMP:  47; 6HR PCP: TRACE;

AURORA         CLOUDY    44  41  88 NE14      29.49R
HASTINGS       HVY RAIN  45  42  89 N12       29.53R FOG
6HR MIN TEMP:  45; 6HR MAX TEMP:  53; 6HR PCP:  0.13;

HEBRON         CLOUDY    48  42  82 NE8       29.46F
HOLDREGE       CLOUDY    46  43  90 NE15      29.47R
KEARNEY *      CLOUDY    45  39  81 NE17      29.50F
YORK           CLOUDY    45  41  87 NE15      29.48F
$$

NEZ011>018-030>034-042>045-251300-
NORTHEAST NEBRASKA

CITY           SKY/WX    TMP DP  RH WIND       PRES   REMARKS
NORFOLK        RAIN      40  37  89 N8        29.56S FOG     WCI  34
6HR MIN TEMP:  40; 6HR MAX TEMP:  47; 6HR PCP:  0.01;

ALBION         LGT RAIN  43  39  86 N14       29.54F
BLAIR          CLOUDY    48  41  79 N12G18    29.49F
FREMONT        CLOUDY    46  39  79 N5        29.50F
TEKAMAH        CLOUDY    46  39  76 N18       29.50F
6HR MIN TEMP:  46; 6HR MAX TEMP:  53;

WAYNE          CLOUDY    41  40  95 N10       29.58R
$$

NEZ050>053-065>068-078-088>093-251300-
SOUTHEAST NEBRASKA

CITY           SKY/WX    TMP DP  RH WIND       PRES   REMARKS
LINCOLN        CLOUDY    48  41  76 N15       29.46F
6HR MIN TEMP:  48; 6HR MAX TEMP:  55; 6HR PCP: TRACE;

OMAHA EPPLEY   CLOUDY    50  41  71 N8        29.51F
6HR MIN TEMP:  50; 6HR MAX TEMP:  62;

BEATRICE       CLOUDY    49  45  84 NE7       29.47S
FALLS CITY     CLOUDY    54  48  80 NE3       29.45F
6HR MIN TEMP:  53; 6HR MAX TEMP:  58; 6HR PCP: TRACE;

NEBRASKA CITY  CLOUDY    52  44  73 NE5       29.46R
PLATTSMOUTH    CLOUDY    51  43  76 NE6G16    29.45F
$$

NEZ044-045-051>053-067-251300-
OMAHA AREA

CITY           SKY/WX    TMP DP  RH WIND       PRES   REMARKS
OMAHA EPPLEY   CLOUDY    50  41  71 N8        29.51F
6HR MIN TEMP:  50; 6HR MAX TEMP:  62;

BLAIR          CLOUDY    48  41  79 N12G18    29.49F
FREMONT        CLOUDY    46  39  79 N5        29.50F
MILLARD        CLOUDY    52  44  73 N6        29.49F
OFFUTT AFB     LGT RAIN  51  43  75 N9        29.47F
PLATTSMOUTH    CLOUDY    51  43  76 NE6G16    29.45F
WAHOO          FAIR      47  40  78 CALM      29.52R
$$



USA.gov is the U.S. government's official web portal to all federal, state and local government web resources and services.